{"data":{"norad_id":57366,"epoch":"2026-09-20T04:11:30.441696Z","epoch_age_seconds":152214,"freshness":"FRESH","line1":"1 57366U 23099AQ  26263.17465789 -.00000194  00000+0  24772-5 0  9997","line2":"2 57366  43.0007 223.2951 0000966 265.8703  94.2038 15.27572935175947","mean_motion":15.27572935,"eccentricity":9.66e-5,"inclination_deg":43.0007,"raan_deg":223.2951,"arg_perigee_deg":265.8703,"mean_anomaly_deg":94.2038,"bstar":2.4772e-6,"rev_number":17594,"period_min":94.267184695833,"perigee_km":482.40745865234,"apogee_km":483.73304389328,"semimajor_km":6861.2072512728,"source":"CELESTRAK","updated_at":"2026-09-21T09:00:33.603888Z"}}